Location: ??????
(55.7522°N, 37.6156°E)
Time: 17:56:59
(UTC+00:00)

Cosmos 2228 Rocket - Pass Details

Date: 14 June 2025
Orbit: 612 x 647 km, 82.5° (Epoch: 13 July)

Event Time Altitude Azimuth Distance (km) Brightness Sun altitude
Exits shadow 19:39:49 - 145° (SE) 2,078 5.1 -7.5°
Reaches altitude 10° 19:40:00 10° 144° (SE) 2,014 5.0 -7.6°
Maximum altitude 19:43:42 26° 88° (E) 1,247 4.4 -7.8°
Drops below altitude 10° 19:47:23 10° 32° (NNE) 2,010 6.2 -8.0°
Sets 19:49:52 0° 20° (NNE) 2,916 7.3 -8.1°
